This demonstration page uses our WeatherBlox Daily Observations layout. Learn more.

Hourly Observations for January 23, 2021

Temp ( °F °C ) Dew Point ( °F °C ) Humidity (%) Winds ( mph kmh ) Pressure ( in mb ) Visibility ( mi km ) Precip ( " mm )
12:15 am 00:15 Clear 20 -6.5 17 -8.2 88 88 SE 9 15 30.28 1025 10 16.0934 0 0
12:35 am 00:35 Clear 21 -6.2 17 -8.1 87 87 SE 10 17 30.27 1025 10 16.0934 0 0
12:55 am 00:55 Clear 21 -6.2 17 -8.1 87 87 SE 12 19 30.26 1025 10 16.0934 0 0
1:15 am 01:15 Clear 21 -6 17 -8.1 85 85 SE 10 17 30.25 1025 10 16.0934 0 0
1:35 am 01:35 Clear 21 -6 17 -8.3 84 84 SE 10 17 30.24 1024 10 16.0934 0 0
1:55 am 01:55 Clear 21 -6 17 -8.5 83 83 SE 13 20 30.24 1024 10 16.0934 0 0
2:15 am 02:15 Partly Cloudy 21 -6 16 -8.7 81 81 SE 12 19 30.25 1025 10 16.0934 0 0
2:35 am 02:35 Partly Cloudy 22 -5.8 16 -9 78 78 SE 9 15 30.25 1024 10 16.0934 0 0
2:55 am 02:55 Mostly Cloudy 22 -5.7 15 -9.2 77 77 SE 12 19 30.24 1024 10 16.0934 0 0
3:15 am 03:15 Mostly Cloudy 21 -6 15 -9.5 77 77 SE 9 15 30.24 1024 10 16.0934 0 0
3:35 am 03:35 Partly Cloudy 21 -6.2 15 -9.5 78 78 SE 9 15 30.24 1024 10 16.0934 0 0
3:55 am 03:55 Clear 20 -6.6 15 -9.6 79 79 SE 8 13 30.23 1024 10 16.0934 0 0
4:15 am 04:15 Mostly Cloudy 20 -6.7 15 -9.5 81 81 SE 8 13 30.22 1023 10 16.0934 0 0
4:35 am 04:35 Partly Cloudy 20 -6.7 15 -9.5 81 81 SE 7 11 30.21 1023 10 16.0934 0 0
4:55 am 04:55 Mostly Cloudy 21 -6.3 15 -9.3 80 80 SE 9 15 30.2 1023 10 16.0934 0 0
5:15 am 05:15 Cloudy 21 -5.9 15 -9.6 75 75 SSE 10 17 30.19 1022 10 16.0934 0 0
5:35 am 05:35 Cloudy 21 -6 14 -9.8 75 75 SSE 8 13 30.18 1022 10 16.0934 0 0
5:55 am 05:55 Cloudy 21 -6 14 -9.9 74 74 SE 7 11 30.17 1022 10 16.0934 0 0
6:15 am 06:15 Cloudy 21 -6 14 -10.1 73 73 SE 9 15 30.16 1021 10 16.0934 0 0
6:35 am 06:35 Cloudy 21 -6.1 14 -10.1 74 74 SE 10 17 30.16 1021 10 16.0934 0 0
6:55 am 06:55 Cloudy 20 -6.4 13 -10.3 74 74 SE 10 17 30.17 1022 10 16.0934 0 0
7:15 am 07:15 Mostly Cloudy 20 -6.9 13 -10.5 76 76 SE 9 15 30.16 1021 10 16.0934 0 0
7:35 am 07:35 Partly Cloudy 19 -7.1 13 -10.5 77 77 SE 8 13 30.15 1021 10 16.0934 0 0
7:55 am 07:55 Partly Cloudy 19 -7.5 13 -10.5 79 79 SE 12 19 30.16 1021 10 16.0934 0 0
8:15 am 08:15 Mostly Cloudy 20 -6.9 14 -10 79 79 SE 10 17 30.14 1021 10 16.0934 0 0
8:35 am 08:35 Cloudy 21 -6 14 -10 74 74 SE 12 19 30.13 1020 10 16.0934 0 0
8:55 am 08:55 Cloudy 23 -5.2 15 -9.7 71 71 ESE 9 15 30.13 1020 10 16.0934 0 0
9:15 am 09:15 Cloudy 24 -4.6 15 -9.7 68 68 SE 8 13 30.11 1020 10 16.0934 0 0
9:35 am 09:35 Cloudy 24 -4.2 14 -10 64 64 SE 10 17 30.11 1019 10 16.0934 0 0
9:55 am 09:55 Cloudy 25 -4 14 -9.8 64 64 SE 16 26 30.09 1019 10 16.0934 0 0
10:15 am 10:15 Cloudy 25 -3.8 14 -10.1 62 62 SE 14 22 30.1 1019 10 16.0934 0 0
10:35 am 10:35 Cloudy 25 -3.8 14 -10.1 62 62 SE 13 20 30.09 1019 10 16.0934 0 0
10:55 am 10:55 Cloudy 26 -3.6 14 -10 62 62 SSE 14 22 30.09 1019 10 16.0934 0 0
11:15 am 11:15 Cloudy 26 -3.4 14 -9.8 62 62 SE 15 24 30.06 1018 10 16.0934 0 0
11:35 am 11:35 Cloudy 26 -3.2 16 -9.1 64 64 SSE 15 24 30.05 1017 10 16.0934 0 0
12:15 pm 12:15 Cloudy 25 -3.7 19 -7.2 77 77 SSE 13 20 30.03 1017 7 11.26538 0 0
12:35 pm 12:35 Cloudy with Mist and Fog 25 -4 21 -5.9 87 87 SSE 10 17 30.02 1017 2.5 4.02335 0 0
12:55 pm 12:55 Cloudy 25 -4.1 22 -5.5 90 90 SSE 10 17 29.99 1016 10 16.0934 0 0
1:15 pm 13:15 Cloudy with Mist and Fog 25 -4 23 -5.1 92 92 SSE 13 20 29.98 1015 3 4.82802 0 0
1:35 pm 13:35 Cloudy with Mist and Fog 25 -3.8 23 -5 91 91 SE 14 22 29.96 1015 3 4.82802 0 0
1:55 pm 13:55 Cloudy 25 -3.8 23 -4.8 93 93 SSE 12 19 29.95 1014 7 11.26538 0 0
2:15 pm 14:15 Cloudy 25 -3.7 23 -4.8 92 92 SSE 13 20 29.96 1015 7 11.26538 0 0
2:35 pm 14:35 Cloudy with Mist and Fog 26 -3.5 24 -4.5 93 93 SSE 10 17 29.95 1014 3 4.82802 0 0
2:55 pm 14:55 Cloudy with Mist and Fog 26 -3.5 24 -4.5 93 93 S 10 17 29.95 1014 4 6.43736 0 0
3:15 pm 15:15 Cloudy with Mist and Fog 26 -3.5 24 -4.3 94 94 S 8 13 29.96 1014 4 6.43736 0 0
3:35 pm 15:35 Cloudy with Mist and Fog 26 -3.5 24 -4.2 95 95 S 9 15 29.96 1014 5 8.0467 0 0
3:55 pm 15:55 Cloudy with Mist and Fog 26 -3.4 24 -4.2 94 94 S 6 9 29.96 1014 5 8.0467 0 0
4:15 pm 16:15 Cloudy with Mist and Fog 26 -3.3 25 -4.1 94 94 SSW 5 7 29.96 1014 5 8.0467 0 0
4:35 pm 16:35 Cloudy with Mist and Fog 26 -3.2 25 -4 94 94 SSW 5 7 29.97 1015 4 6.43736 0 0
4:55 pm 16:55 Cloudy with Mist and Fog 26 -3.2 25 -4 94 94 Calm 29.97 1015 4 6.43736 0 0
5:15 pm 17:15 Cloudy with Mist and Fog 26 -3.3 25 -4 95 95 Calm 29.97 1015 5 8.0467 0 0
5:35 pm 17:35 Cloudy with Mist and Fog 26 -3.2 25 -4 94 94 Calm 29.98 1015 4 6.43736 0 0
5:55 pm 17:55 Cloudy with Mist and Fog 26 -3.2 25 -4 94 94 Calm 29.98 1015 4 6.43736 0 0
6:15 pm 18:15 Cloudy with Mist and Fog 26 -3.2 25 -3.8 96 96 Calm 29.98 1015 5 8.0467 0 0
6:35 pm 18:35 Cloudy 26 -3.2 25 -3.8 96 96 Calm 29.99 1015 7 11.26538 0 0
6:55 pm 18:55 Cloudy 26 -3.2 25 -3.8 96 96 N 3 6 30 1016 7 11.26538 0 0
7:15 pm 19:15 Cloudy 26 -3.2 25 -3.8 96 96 N 3 6 30.01 1016 10 16.0934 0 0
7:35 pm 19:35 Cloudy 26 -3.1 25 -3.9 94 94 NNW 5 7 30.01 1016 10 16.0934 0 0
7:55 pm 19:55 Cloudy 26 -3.2 25 -4 94 94 NNW 3 6 30.02 1016 10 16.0934 0 0
8:15 pm 20:15 Cloudy 26 -3.1 25 -4 94 94 NW 3 6 30.01 1016 10 16.0934 0 0
8:35 pm 20:35 Cloudy 26 -3.1 25 -4.1 93 93 NW 8 13 30.02 1017 10 16.0934 0 0
8:55 pm 20:55 Cloudy 26 -3.1 24 -4.3 92 92 NW 7 11 30.02 1017 10 16.0934 0 0
9:15 pm 21:15 Cloudy 26 -3.1 24 -4.3 92 92 NW 7 11 30.03 1017 10 16.0934 0 0
9:35 pm 21:35 Cloudy 26 -3.1 24 -4.3 92 92 NW 5 7 30.03 1017 10 16.0934 0 0
9:55 pm 21:55 Cloudy 27 -3 24 -4.2 92 92 NW 5 7 30.04 1017 10 16.0934 0 0
10:15 pm 22:15 Cloudy 27 -3 24 -4.3 91 91 NW 7 11 30.03 1017 10 16.0934 0 0
10:35 pm 22:35 Cloudy 27 -3 24 -4.5 90 90 NW 7 11 30.04 1017 10 16.0934 0 0
10:55 pm 22:55 Cloudy 27 -3 24 -4.5 90 90 NNW 6 9 30.04 1017 10 16.0934 0 0
11:15 pm 23:15 Cloudy 27 -3 24 -4.5 90 90 N 5 7 30.04 1017 10 16.0934 0 0
11:35 pm 23:35 Cloudy 27 -3 24 -4.5 90 90 Calm 30.04 1017 10 16.0934 0 0
11:55 pm 23:55 Partly Cloudy 27 -3 24 -4.3 91 91 Calm 30.05 1018 10 16.0934 0 0

Powered by AerisWeather